Change the Weather History Date:

Thursday, March 22, 2012

  Actual Average (KCLT) Record (KCLT)
Temperature  
Mean Temperature 68 °F 53 °F  
Max Temperature 79 °F 65 °F 89 °F (1907)
Min Temperature 59 °F 41 °F 24 °F (1965)
Degree Days  
Heating Degree Days 0 12  
Month to date heating degree days 334  
Since 1 July heating degree days 3033  
Cooling Degree Days 4 0  
Month to date cooling degree days 0  
Year to date cooling degree days 0  
Growing Degree Days 18 (Base 50)    
Moisture  
Dew Point 60 °F    
Average Humidity 84    
Maximum Humidity 100    
Minimum Humidity 45    
Precipitation  
Precipitation 0.00 in 0.12 in 0.88 in (1879)
Month to date precipitation 2.91  
Year to date precipitation 9.64  
Snow  
Snow 0.00 in 0.00 in 2.10 in (1885)
Month to date snowfall 0.5  
Since 1 July snowfall 4.2  
Snow Depth -    
Sea Level Pressure  
Sea Level Pressure 30.23 in    
Wind  
Wind Speed 1 mph (South)    
Max Wind Speed 8 mph    
Max Gust Speed -    
Visibility 5 miles    
Events Fog    
T = Trace of Precipitation, MM = Missing Value Source: NWS Daily Summary

Daily Weather History Graph

Daily Weather History Graph

Search for Another Location

Airport or City:

Trip Planner

Search our weather history database for the weather conditions in past years. The results will help you decide how hot, cold, wet, or windy it might be!

Date:

Astronomy

Mar. 22, 2012 Rise Set
Actual Time 7:24 AM EDT 7:38 PM EDT
Civil Twilight 6:59 AM EDT 8:03 PM EDT
Nautical Twilight 6:29 AM EDT 8:33 PM EDT
Astronomical Twilight 5:59 AM EDT 9:03 PM EDT
Moon 7:05 AM EDT (3/22) 7:58 PM EDT (3/22)
Length of Visible Light 13h 04m
Length of Day
12h 13m
New Moon, 0% of the Moon is Illuminated
Mar 22
New Moon
Mar 30
First Quarter
Apr 6
Full
Apr 13
Last Quarter
Apr 21
New

Hourly Weather History & Observations

Time (EDT) Temp. Dew Point Humidity Pressure Visibility Wind Dir Wind Speed Gust Speed Precip Events Conditions
12:54 AM 64.0 °F 60.1 °F 87% 30.24 in 10.0 mi Calm Calm - N/A   Clear
1:54 AM 62.1 °F 59.0 °F 90% 30.24 in 10.0 mi Calm Calm - N/A   Partly Cloudy
2:54 AM 62.1 °F 59.0 °F 90% 30.25 in 8.0 mi Calm Calm - N/A   Clear
3:43 AM 60.8 °F 59.0 °F 94% 30.25 in 1.8 mi Calm Calm - N/A   Partly Cloudy
3:50 AM 60.8 °F 59.0 °F 94% 30.25 in 0.8 mi Calm Calm - N/A   Mist
3:52 AM 60.8 °F 59.0 °F 94% 30.24 in 1.2 mi Calm Calm - N/A   Partly Cloudy
3:54 AM 61.0 °F 59.0 °F 93% 30.23 in 1.2 mi Calm Calm - N/A   Partly Cloudy
3:58 AM 60.8 °F 59.0 °F 94% 30.24 in 3.0 mi Calm Calm - N/A   Partly Cloudy
4:25 AM 60.8 °F 57.2 °F 88% 30.24 in 2.5 mi Calm Calm - N/A   Scattered Clouds
4:29 AM 59.0 °F 57.2 °F 94% 30.24 in 1.0 mi Calm Calm - N/A   Mostly Cloudy
4:36 AM 59.0 °F 57.2 °F 94% 30.24 in 0.5 mi Calm Calm - N/A Fog Fog
4:45 AM 60.8 °F 59.0 °F 94% 30.24 in 2.0 mi Calm Calm - N/A   Overcast
4:49 AM 60.8 °F 59.0 °F 94% 30.24 in 4.0 mi Calm Calm - N/A   Overcast
4:54 AM 60.1 °F 59.0 °F 96% 30.23 in 4.0 mi Calm Calm - N/A   Overcast
5:10 AM 60.8 °F 59.0 °F 94% 30.24 in 5.0 mi Calm Calm - N/A   Overcast
5:21 AM 62.6 °F 60.8 °F 94% 30.24 in 1.8 mi Calm Calm - N/A   Overcast
5:33 AM 60.8 °F 60.8 °F 100% 30.24 in 0.5 mi Calm Calm - N/A Fog Fog
5:42 AM 60.8 °F 60.8 °F 100% 30.24 in 0.2 mi Calm Calm - N/A Fog Fog
5:54 AM 61.0 °F 60.1 °F 97% 30.22 in 0.2 mi Calm Calm - N/A Fog Fog
6:54 AM 61.0 °F 60.1 °F 97% 30.22 in 0.2 mi Calm Calm - N/A Fog Fog
7:54 AM 62.1 °F 60.1 °F 93% 30.24 in 0.2 mi Calm Calm - N/A Fog Fog
8:33 AM 62.6 °F 60.8 °F 94% 30.25 in 0.5 mi Calm Calm - N/A Fog Fog
8:42 AM 62.6 °F 60.8 °F 94% 30.25 in 0.2 mi Calm Calm - N/A Fog Fog
8:54 AM 62.1 °F 61.0 °F 96% 30.25 in 0.2 mi Calm Calm - N/A Fog Fog
9:38 AM 62.6 °F 60.8 °F 94% 30.26 in 0.8 mi Calm Calm - N/A   Mist
9:46 AM 62.6 °F 62.6 °F 100% 30.27 in 1.0 mi Calm Calm - N/A   Overcast
9:54 AM 63.0 °F 61.0 °F 93% 30.26 in 1.5 mi Calm Calm - N/A   Overcast
9:58 AM 62.6 °F 60.8 °F 94% 30.27 in 3.0 mi Calm Calm - N/A   Overcast
10:33 AM 64.4 °F 62.6 °F 94% 30.28 in 7.0 mi Calm Calm - N/A   Overcast
10:50 AM 66.2 °F 62.6 °F 88% 30.28 in 8.0 mi Calm Calm - N/A   Overcast
11:07 AM 68.0 °F 62.6 °F 83% 30.28 in 9.0 mi South 4.6 mph - N/A   Overcast
11:24 AM 69.8 °F 62.6 °F 78% 30.28 in 10.0 mi SE 5.8 mph - N/A   Mostly Cloudy
11:33 AM 69.8 °F 62.6 °F 78% 30.28 in 10.0 mi Variable 3.5 mph - N/A   Scattered Clouds
11:54 AM 70.0 °F 62.1 °F 76% 30.27 in 10.0 mi Variable 3.5 mph - N/A   Scattered Clouds
12:02 PM 69.8 °F 60.8 °F 73% 30.27 in 10.0 mi South 3.5 mph - N/A   Mostly Cloudy
12:54 PM 73.0 °F 59.0 °F 61% 30.25 in 10.0 mi Variable 3.5 mph - N/A   Mostly Cloudy
1:54 PM 73.9 °F 57.9 °F 57% 30.22 in 10.0 mi South 3.5 mph - N/A   Overcast
2:54 PM 77.0 °F 55.9 °F 48% 30.19 in 10.0 mi South 8.1 mph - N/A   Mostly Cloudy
3:54 PM 78.1 °F 55.0 °F 45% 30.16 in 10.0 mi SSE 3.5 mph - N/A   Clear
4:54 PM 78.1 °F 55.9 °F 46% 30.14 in 10.0 mi South 4.6 mph - N/A   Clear
5:54 PM 77.0 °F 55.9 °F 48% 30.13 in 10.0 mi Variable 4.6 mph - N/A   Mostly Cloudy
6:54 PM 75.0 °F 57.9 °F 55% 30.14 in 10.0 mi SW 4.6 mph - N/A   Overcast
7:54 PM 72.0 °F 60.1 °F 66% 30.15 in 10.0 mi Calm Calm - N/A   Overcast
8:54 PM 69.1 °F 60.1 °F 73% 30.15 in 10.0 mi Calm Calm - N/A   Scattered Clouds
9:54 PM 66.9 °F 62.1 °F 84% 30.15 in 10.0 mi Calm Calm - 0.00 in   Scattered Clouds
10:54 PM 66.0 °F 61.0 °F 84% 30.15 in 10.0 mi Calm Calm - N/A   Mostly Cloudy
11:54 PM 64.0 °F 60.1 °F 87% 30.15 in 10.0 mi Calm Calm - N/A   Mostly Cloudy